[[{"header":{"parameterUnit":"m.s-1","parameterCategory":1,"la1":30.2991,"la2":30.254,"lo1":-89.0895,"lo2":-89.0444,"dy":0.0017,"dx":0.0017,"nx":28,"ny":28,"refTime":"2025-09-12T21:00:00:Z","depth":0,"parameterNumber":2,"parameterNumberName":"U-component_of_WINDS"},"data":[0,0,0,0,0,0,0,0,0,0,0,0,0,0,0,0,0,0,0,0,0,0,0,0,0,0,0,0,0,0,0,0,0,0,0,0,0,0,0,0,0,0,0,0,0,0,0,0,0,0,0,0,0,0,0,0,0,0,1.5374,1.5375,0,1.5488,1.5489,1.549,1.5517,1.5516,1.5515,1.5514,1.563,1.5633,1.5637,0,0,0,0,0,0,0,0,0,0,0,0,0,1.5178,1.5181,1.5374,1.5375,1.5377,1.5488,1.5489,1.5491,1.5517,1.5516,1.5515,1.5514,1.5628,1.5633,1.5637,0,0,0,0,0,0,0,0,0,0,0,0,0,1.5274,1.5183,1.5374,1.5403,1.5407,1.5487,1.5489,1.5491,1.5517,1.5516,1.5515,1.5513,1.5627,1.5632,1.5638,1.5697,0,0,1.5656,1.5658,0,0,0,0,0,0,0,0,1.5269,1.5282,1.5397,1.5401,1.5406,1.5487,1.5462,1.556,1.5517,1.5475,1.5514,1.5513,1.5583,1.5592,1.5616,1.5702,1.5707,1.5656,1.5659,1.5662,1.5664,0,0,0,0,0,0,0,1.5262,1.5277,1.5419,1.5399,1.5404,1.541,1.5423,1.5481,1.5534,1.5479,1.5481,1.5494,1.5585,1.5611,1.5619,1.5709,1.5656,1.5661,1.5664,1.5667,1.5847,1.5849,0,0,0,0,0,0,1.5251,1.5271,1.5415,1.5422,1.5333,1.5415,1.5429,1.5462,1.5534,1.5544,1.5495,1.5495,1.5601,1.5612,1.5623,1.5696,1.5662,1.5667,1.567,1.5846,1.5848,1.5849,0,0,0,0,0,0,1.5246,1.5263,1.5411,1.5347,1.5367,1.5419,1.5457,1.5465,1.549,1.5546,1.5555,1.5511,1.5601,1.5615,1.5678,1.57,1.567,1.5675,1.5844,1.5847,1.5849,1.5841,0,0,0,0,0,0,1.5241,1.5262,1.5285,1.5348,1.537,1.5464,1.5458,1.5468,1.55,1.5501,1.5564,1.5573,1.5601,1.5669,1.5684,1.5707,1.5679,1.5843,1.5845,1.5848,1.584,1.5843,1.5845,0,0,0,0,0,1.5233,1.5278,1.5286,1.5303,1.54,1.5465,1.5478,1.551,1.5502,1.5525,1.5561,1.5571,1.5695,1.5676,1.5692,1.5717,1.5841,1.5845,1.5848,1.5838,1.5842,1.5845,0,0,0,0,0,0,1.5216,1.5287,1.5296,1.5363,1.5408,1.547,1.55,1.5513,1.5561,1.556,1.5597,1.561,1.5671,1.5701,1.5677,1.5777,1.5768,1.5775,1.5755,1.576,1.5762,1.5753,1.5684,0,0,0,0,0,1.522,1.5267,1.5327,1.5379,1.5402,1.5447,1.5477,1.5497,1.5545,1.5564,1.5605,1.565,1.57,1.5732,1.578,1.5845,1.5858,1.587,1.5873,1.5875,1.588,1.5915,1.5921,1.586,1.5859,1.5859,0,0,1.5228,1.5273,1.53,1.5377,1.5414,1.5462,1.5463,1.5513,1.5549,1.5572,1.5633,1.5665,1.5718,1.5782,1.5812,1.5809,1.59,1.5879,1.588,1.5884,1.5919,1.5924,1.5929,1.5862,1.5861,1.5861,0,0,1.5267,1.5306,1.5354,1.5392,1.5448,1.5478,1.549,1.555,1.5571,1.5634,1.5652,1.5695,1.5779,1.5816,1.5846,1.5899,1.591,1.5914,1.5929,1.5962,1.5967,1.5972,1.5989,1.5995,1.5919,1.5919,1.5919,0,1.527,1.5343,1.5377,1.5427,1.5459,1.5483,1.5531,1.5566,1.5635,1.5657,1.5653,1.5759,1.5797,1.5868,1.5881,1.5905,1.5919,1.5907,1.5964,1.5969,1.5973,1.599,1.5997,1.5919,1.5919,1.5919,1.5919,0,1.5343,1.5393,1.5425,1.5492,1.5528,1.5577,1.5617,1.565,1.5668,1.5698,1.5761,1.5807,1.5865,1.5884,1.5901,1.5958,1.5954,1.5957,1.5948,1.5978,1.5995,1.6002,1.5919,1.5919,1.5919,1.5919,0,0,1.5373,1.5458,1.5469,1.5499,1.5564,1.5603,1.5652,1.5709,1.5736,1.5784,1.5825,1.5896,1.5898,1.5932,1.5954,1.5984,1.6022,1.5983,1.5985,1.5987,1.6086,1.6083,1.609,1.603,1.6031,1.6032,1.6081,0,1.5419,1.5508,1.554,1.5614,1.566,1.5683,1.5726,1.577,1.5799,1.5842,1.5875,1.5924,1.5924,1.5945,1.5975,1.6011,1.6042,1.6008,1.6068,1.607,1.6052,1.6099,1.6096,1.6139,1.6088,1.6089,1.609,0,1.5484,1.5532,1.561,1.5668,1.5689,1.5727,1.5781,1.5823,1.5873,1.5892,1.593,1.595,1.6002,1.5991,1.6062,1.6038,1.6065,1.6086,1.6088,1.6094,1.608,1.6104,1.6154,1.616,1.6101,1.61,1.6099,0,1.5496,1.5581,1.5638,1.5664,1.5733,1.5759,1.5789,1.5838,1.587,1.5918,1.5939,1.5992,1.602,1.6061,1.6094,1.6083,1.6162,1.6154,1.6179,1.6178,1.6193,1.6191,1.6246,1.6212,1.6212,1.6212,1.6212,0,1.5543,1.559,1.5645,1.568,1.5732,1.5769,1.5819,1.5851,1.5894,1.5935,1.5959,1.5997,1.6039,1.6083,1.6109,1.6164,1.6177,1.6193,1.6199,1.619,1.6188,1.6207,1.6204,1.6214,1.6214,1.6213,1.6213,0,1.5565,1.5604,1.5668,1.5729,1.5745,1.5781,1.5833,1.5867,1.5898,1.595,1.5964,1.6012,1.6064,1.6102,1.6169,1.6187,1.6245,1.6252,1.6228,1.6231,1.6253,1.625,1.6321,1.6331,1.6291,1.6292,1.6292,0,1.5592,1.5628,1.5693,1.5723,1.5753,1.58,1.5833,1.587,1.5903,1.5962,1.5989,1.6043,1.6088,1.6171,1.6211,1.6262,1.627,1.6291,1.6278,1.6267,1.6269,1.6265,1.6269,1.6293,1.6293,1.6293,1.6293,0,1.5635,1.5652,1.5699,1.5752,1.5791,1.5835,1.5878,1.5901,1.5946,1.5982,1.6036,1.607,1.6139,1.6192,1.6247,1.6278,1.6293,1.6298,1.6306,1.6296,1.628,1.6288,1.6232,1.6295,1.6295,1.6295,1.6295,1.6295,1.5659,1.5692,1.5743,1.5794,1.5831,1.5871,1.5907,1.5942,1.5987,1.6046,1.6066,1.6121,1.617,1.6246,1.6277,1.632,1.6319,1.6331,1.6334,1.6336,1.6335,1.6274,1.6331,1.6331,1.6331,1.6331,1.6331,0,1.5702,1.5736,1.5782,1.5843,1.5883,1.5895,1.5944,1.5976,1.6025,1.6069,1.6113,1.6174,1.6226,1.627,1.6323,1.6349,1.6358,1.6362,1.636,1.6366,1.6334,1.6321,1.6355,1.6355,1.6355,1.6355,1.6354,1.6354,1.5729,1.5785,1.5808,1.5882,1.5916,1.5971,1.5998,1.6035,1.607,1.6138,1.6181,1.621,1.6254,1.6311,1.6358,1.637,1.6388,1.639,1.6403,1.6372,1.6369,1.6366,1.6354,1.6394,1.6394,1.6433,1.6433,1.6433]},{"header":{"parameterUnit":"m.s-1","parameterCategory":1,"la1":30.2991,"la2":30.254,"lo1":-89.0895,"lo2":-89.0444,"dy":0.0017,"dx":0.0017,"nx":28,"ny":28,"refTime":"2025-09-12T21:00:00:Z","depth":0,"parameterNumber":3,"parameterNumberName":"V-component_of_WINDS"},"data":[0,0,0,0,0,0,0,0,0,0,0,0,0,0,0,0,0,0,0,0,0,0,0,0,0,0,0,0,0,0,0,0,0,0,0,0,0,0,0,0,0,0,0,0,0,0,0,0,0,0,0,0,0,0,0,0,0,0,2.5995,2.5994,0,2.5887,2.5886,2.5885,2.5797,2.5796,2.5795,2.5794,2.5678,2.5675,2.5673,0,0,0,0,0,0,0,0,0,0,0,0,0,2.6118,2.6117,2.5995,2.5994,2.5992,2.5888,2.5886,2.5884,2.5797,2.5796,2.5795,2.5794,2.5678,2.5676,2.5673,0,0,0,0,0,0,0,0,0,0,0,0,0,2.6043,2.6116,2.5995,2.5936,2.593,2.5888,2.5886,2.5884,2.5797,2.5796,2.5795,2.5793,2.5679,2.5676,2.5673,2.5678,0,0,2.5662,2.5661,0,0,0,0,0,0,0,0,2.6048,2.6039,2.5946,2.594,2.5933,2.5854,2.5887,2.5815,2.5798,2.5847,2.5794,2.5793,2.5737,2.5729,2.5711,2.5673,2.5668,2.5662,2.566,2.5658,2.5657,0,0,0,0,0,0,0,2.6053,2.6043,2.5952,2.5945,2.5937,2.5913,2.5901,2.5873,2.5801,2.5843,2.5836,2.5825,2.5733,2.5715,2.5708,2.5666,2.5662,2.5659,2.5657,2.5655,2.5626,2.5628,0,0,0,0,0,0,2.6068,2.6048,2.5955,2.5949,2.5988,2.5912,2.5898,2.5881,2.5801,2.5788,2.5826,2.5821,2.5721,2.5712,2.5703,2.5705,2.5658,2.5655,2.5653,2.5625,2.5627,2.5628,0,0,0,0,0,0,2.6071,2.6061,2.596,2.5996,2.5982,2.5911,2.5892,2.5879,2.5861,2.5789,2.5775,2.5821,2.572,2.5708,2.5686,2.57,2.5654,2.565,2.5624,2.5626,2.5627,2.5708,0,0,0,0,0,0,2.6075,2.6062,2.6065,2.5997,2.598,2.5946,2.5893,2.5878,2.5856,2.5849,2.578,2.5767,2.5718,2.5691,2.5682,2.5694,2.5648,2.5622,2.5625,2.5627,2.5704,2.5713,2.572,0,0,0,0,0,2.608,2.6091,2.6066,2.6055,2.5983,2.5947,2.5937,2.5882,2.5858,2.5859,2.5813,2.577,2.57,2.569,2.5679,2.569,2.5621,2.5624,2.5627,2.57,2.5711,2.572,0,0,0,0,0,0,2.616,2.6081,2.6052,2.6042,2.6002,2.5932,2.5932,2.5895,2.5859,2.5853,2.5784,2.5769,2.5754,2.5719,2.571,2.5691,2.5655,2.5656,2.5714,2.5724,2.5732,2.574,2.5645,0,0,0,0,0,2.6177,2.6156,2.6087,2.6085,2.6067,2.6004,2.5986,2.5947,2.5902,2.5884,2.5835,2.5791,2.5759,2.574,2.5706,2.5699,2.5682,2.5701,2.5709,2.5716,2.5717,2.571,2.5718,2.5638,2.5638,2.5637,0,0,2.6211,2.6165,2.6156,2.61,2.6065,2.6043,2.599,2.5969,2.5952,2.588,2.5856,2.5819,2.5765,2.5751,2.5741,2.5721,2.5736,2.572,2.5726,2.5723,2.5714,2.5722,2.5728,2.564,2.5639,2.5639,0,0,2.6262,2.6226,2.622,2.6186,2.6134,2.6091,2.609,2.6026,2.6,2.5975,2.5921,2.5898,2.5845,2.5809,2.5784,2.5822,2.5781,2.5813,2.5854,2.5849,2.5855,2.586,2.5873,2.5879,2.5814,2.5815,2.5815,0,2.631,2.6277,2.6221,2.6204,2.6181,2.6117,2.611,2.6078,2.6017,2.6002,2.5981,2.5913,2.5872,2.5848,2.5857,2.5839,2.5834,2.582,2.5859,2.5864,2.5868,2.5879,2.5885,2.5819,2.5818,2.5818,2.5817,0,2.6339,2.6317,2.6318,2.6264,2.624,2.6228,2.6168,2.6151,2.6114,2.6074,2.6049,2.5999,2.5954,2.5945,2.5908,2.5916,2.5905,2.5872,2.5834,2.588,2.589,2.5894,2.5825,2.5823,2.5822,2.5821,0,0,2.6436,2.6352,2.6353,2.6327,2.6265,2.6246,2.6231,2.619,2.6176,2.6136,2.612,2.6077,2.6047,2.6018,2.5977,2.5972,2.6005,2.5939,2.5937,2.5953,2.6009,2.6034,2.604,2.5978,2.5978,2.5979,2.6014,0,2.6477,2.6448,2.6397,2.6384,2.6362,2.6302,2.6288,2.6248,2.621,2.6185,2.6141,2.6112,2.6075,2.6057,2.6049,2.6003,2.6015,2.5999,2.596,2.596,2.5976,2.6045,2.6071,2.6107,2.6017,2.6018,2.6018,0,2.652,2.6486,2.6472,2.6412,2.6401,2.639,2.6348,2.6325,2.6278,2.625,2.622,2.6175,2.6153,2.6119,2.6088,2.6079,2.606,2.6034,2.6034,2.6028,2.5992,2.604,2.6116,2.6122,2.6024,2.6023,2.6023,0,2.6592,2.6543,2.6528,2.6508,2.6438,2.6431,2.6401,2.6353,2.6331,2.6294,2.6279,2.6239,2.6217,2.6186,2.613,2.6111,2.6105,2.6067,2.608,2.6082,2.6081,2.6082,2.6155,2.607,2.607,2.607,2.607,0,2.6643,2.6636,2.656,2.655,2.6541,2.6481,2.6473,2.6437,2.6394,2.6375,2.632,2.6303,2.6231,2.6206,2.6162,2.6143,2.6133,2.6109,2.6097,2.6114,2.6117,2.61,2.6096,2.6071,2.6071,2.6071,2.607,0,2.6721,2.667,2.665,2.6586,2.657,2.6565,2.6509,2.6497,2.6456,2.6433,2.6424,2.636,2.6327,2.6269,2.6218,2.6189,2.6178,2.6158,2.6195,2.6188,2.6205,2.6204,2.6269,2.6274,2.6187,2.6188,2.6189,0,2.6757,2.6751,2.6687,2.6672,2.6645,2.662,2.6599,2.654,2.6519,2.6465,2.6459,2.6422,2.639,2.6339,2.6286,2.6247,2.6226,2.6252,2.622,2.6237,2.6226,2.6227,2.6226,2.6259,2.626,2.6261,2.6262,0,2.6825,2.68,2.6772,2.6736,2.6713,2.6681,2.6645,2.6635,2.6568,2.6547,2.6515,2.649,2.6439,2.6403,2.6357,2.6323,2.6281,2.6273,2.6274,2.629,2.6312,2.63,2.6215,2.6271,2.627,2.627,2.6269,2.6269,2.6882,2.6874,2.6828,2.6799,2.6767,2.6736,2.6722,2.668,2.6652,2.6609,2.6575,2.6545,2.6496,2.643,2.64,2.6373,2.6354,2.6355,2.6356,2.6357,2.6363,2.6317,2.6365,2.6364,2.6364,2.6364,2.6363,0,2.6947,2.6915,2.6889,2.6843,2.682,2.6785,2.6744,2.6727,2.6702,2.6662,2.6631,2.6593,2.6558,2.6503,2.6463,2.6452,2.6432,2.6444,2.6443,2.6436,2.6383,2.6386,2.6461,2.6461,2.6461,2.6461,2.6461,2.6461,2.6978,2.6962,2.6932,2.69,2.6867,2.6839,2.6819,2.6789,2.6757,2.6718,2.6689,2.6655,2.6608,2.6564,2.653,2.6514,2.6502,2.652,2.6498,2.6449,2.644,2.6431,2.6434,2.6518,2.6518,2.6553,2.6554,2.6554]}]]